When you browse on this site, cookies collect data to enhance your experience and personalize the content and advertising you see.
Visit our Privacy Policy to learn more. By continuing to use the site, you agree to this use of cookies and data.

Hourly Weather Dżakarta

Today, 13 August, Thursday

Time Temperature Precipitation Wind Pressure Humidity
00:00 +29°C° 0.1 mm 2 mps 757 mmHg 78%
01:00 +29°C° 0 mm 2 mps 757 mmHg 78%
02:00 +29°C° 0 mm 1 mps 757 mmHg 78%
03:00 +29°C° 0 mm 1 mps 757 mmHg 78%
04:00 +29°C° 0 mm 1 mps 756 mmHg 79%
05:00 +29°C° 0.3 mm 1 mps 757 mmHg 79%
06:00 +29°C° 0.3 mm 1 mps 757 mmHg 79%
07:00 +29°C° 0 mm 1 mps 757 mmHg 80%
08:00 +31°C° 0.4 mm 1 mps 757 mmHg 72%
09:00 +32°C° 0.4 mm 2 mps 757 mmHg 65%
10:00 +35°C° 0.4 mm 2 mps 757 mmHg 57%
11:00 +35°C° 0.2 mm 2 mps 756 mmHg 55%
12:00 +36°C° 0.2 mm 2 mps 756 mmHg 52%
13:00 +35°C° 0 mm 2 mps 756 mmHg 61%
14:00 +34°C° 2 mm 2 mps 755 mmHg 63%
15:00 +34°C° 2 mm 3 mps 755 mmHg 65%
16:00 +33°C° 2 mm 3 mps 755 mmHg 67%
17:00 +31°C° 2.5 mm 2 mps 755 mmHg 71%
18:00 +30°C° 2.5 mm 1 mps 755 mmHg 75%
19:00 +29°C° 2.5 mm 1 mps 756 mmHg 79%
20:00 +29°C° 2.6 mm 1 mps 756 mmHg 82%
21:00 +28°C° 2.6 mm 2 mps 756 mmHg 84%
22:00 +27°C° 2.6 mm 3 mps 757 mmHg 87%
23:00 +27°C° 0.2 mm 2 mps 756 mmHg 86%

Tomorrow, 14 August, Friday

Time Temperature Precipitation Wind Pressure Humidity
00:00 +27°C° 0.2 mm 2 mps 756 mmHg 84%
01:00 +27°C° 0.2 mm 1 mps 755 mmHg 82%
02:00 +27°C° 0 mm 1 mps 755 mmHg 82%
03:00 +27°C° 0 mm 1 mps 755 mmHg 82%
04:00 +27°C° 0 mm 1 mps 755 mmHg 82%
05:00 +28°C° 0 mm 1 mps 755 mmHg 81%
06:00 +28°C° 0 mm 1 mps 755 mmHg 80%
07:00 +28°C° 0 mm 1 mps 756 mmHg 79%
08:00 +30°C° 0 mm 1 mps 756 mmHg 73%
09:00 +31°C° 0 mm 1 mps 756 mmHg 66%
10:00 +34°C° 0 mm 2 mps 757 mmHg 60%
11:00 +35°C° 0.2 mm 2 mps 756 mmHg 56%
12:00 +35°C° 0.2 mm 2 mps 755 mmHg 53%
13:00 +36°C° 0.2 mm 3 mps 755 mmHg 50%
14:00 +35°C° 0.9 mm 3 mps 754 mmHg 55%
15:00 +34°C° 0.9 mm 3 mps 754 mmHg 60%
16:00 +33°C° 0.9 mm 4 mps 754 mmHg 65%
17:00 +31°C° 1.7 mm 3 mps 754 mmHg 69%
18:00 +30°C° 1.7 mm 2 mps 755 mmHg 72%
19:00 +29°C° 1.7 mm 2 mps 755 mmHg 76%
20:00 +29°C° 0.3 mm 2 mps 756 mmHg 75%
21:00 +29°C° 0.3 mm 1 mps 756 mmHg 75%
22:00 +29°C° 0.3 mm 1 mps 757 mmHg 74%
23:00 +29°C° 0 mm 1 mps 756 mmHg 76%

Day after tomorrow, 15 August, Saturday

Time Temperature Precipitation Wind Pressure Humidity
00:00 +28°C° 0 mm 2 mps 756 mmHg 78%
01:00 +28°C° 0 mm 2 mps 756 mmHg 79%
02:00 +28°C° 0 mm 2 mps 755 mmHg 80%
03:00 +28°C° 0 mm 2 mps 755 mmHg 80%
04:00 +27°C° 0 mm 1 mps 755 mmHg 80%
05:00 +28°C° 0 mm 1 mps 755 mmHg 79%
06:00 +28°C° 0 mm 1 mps 756 mmHg 79%
07:00 +28°C° 0 mm 1 mps 756 mmHg 78%
08:00 +30°C° 0 mm 2 mps 756 mmHg 71%
09:00 +31°C° 0 mm 2 mps 756 mmHg 64%
10:00 +34°C° 0 mm 3 mps 756 mmHg 57%
11:00 +34°C° 0 mm 3 mps 756 mmHg 56%
12:00 +35°C° 0 mm 4 mps 755 mmHg 54%
13:00 +35°C° 0 mm 4 mps 755 mmHg 53%
14:00 +35°C° 0.4 mm 5 mps 754 mmHg 55%
15:00 +34°C° 0.4 mm 5 mps 754 mmHg 57%
16:00 +34°C° 0.4 mm 5 mps 754 mmHg 59%
17:00 +33°C° 0.8 mm 5 mps 755 mmHg 63%
18:00 +32°C° 0.8 mm 4 mps 755 mmHg 67%
19:00 +30°C° 0.8 mm 4 mps 756 mmHg 71%
20:00 +29°C° 0.6 mm 4 mps 756 mmHg 71%
21:00 +29°C° 0.6 mm 3 mps 757 mmHg 71%
22:00 +29°C° 0.6 mm 3 mps 757 mmHg 71%
23:00 +29°C° 0 mm 3 mps 757 mmHg 72%

16 August, Sunday

Time Temperature Precipitation Wind Pressure Humidity
00:00 +29°C° 0 mm 3 mps 757 mmHg 74%
01:00 +28°C° 0 mm 3 mps 756 mmHg 75%
02:00 +28°C° 0 mm 2 mps 756 mmHg 75%
03:00 +28°C° 0 mm 2 mps 756 mmHg 75%
04:00 +27°C° 0 mm 2 mps 755 mmHg 76%
05:00 +28°C° 0 mm 2 mps 756 mmHg 75%
06:00 +28°C° 0 mm 2 mps 756 mmHg 74%
07:00 +28°C° 0 mm 2 mps 756 mmHg 74%
08:00 +30°C° 0 mm 3 mps 757 mmHg 66%
09:00 +33°C° 0 mm 3 mps 757 mmHg 58%
10:00 +34°C° 0 mm 4 mps 757 mmHg 50%
11:00 +35°C° 0 mm 4 mps 756 mmHg 48%
12:00 +36°C° 0 mm 3 mps 756 mmHg 45%
13:00 +36°C° 0 mm 3 mps 755 mmHg 43%
14:00 +36°C° 0 mm 4 mps 755 mmHg 48%
15:00 +35°C° 0 mm 5 mps 754 mmHg 53%
16:00 +34°C° 0 mm 5 mps 754 mmHg 58%
17:00 +33°C° 0.9 mm 5 mps 754 mmHg 62%
18:00 +32°C° 0.9 mm 4 mps 755 mmHg 67%
19:00 +30°C° 0.9 mm 4 mps 755 mmHg 71%
20:00 +29°C° 0.3 mm 3 mps 756 mmHg 72%
21:00 +29°C° 0.3 mm 3 mps 756 mmHg 73%
22:00 +29°C° 0.3 mm 3 mps 757 mmHg 74%
23:00 +29°C° 0.2 mm 3 mps 757 mmHg 75%

17 August, Monday

Time Temperature Precipitation Wind Pressure Humidity
00:00 +28°C° 0.2 mm 3 mps 756 mmHg 76%
01:00 +28°C° 0.2 mm 2 mps 756 mmHg 77%
02:00 +28°C° 0 mm 2 mps 756 mmHg 78%
03:00 +27°C° 0 mm 2 mps 755 mmHg 79%
04:00 +27°C° 0 mm 2 mps 755 mmHg 80%
05:00 +27°C° 0 mm 2 mps 755 mmHg 80%
06:00 +27°C° 0 mm 2 mps 756 mmHg 80%
07:00 +27°C° 0 mm 2 mps 756 mmHg 79%
08:00 +29°C° 0 mm 2 mps 756 mmHg 73%
09:00 +31°C° 0 mm 1 mps 756 mmHg 67%
10:00 +32°C° 0 mm 1 mps 757 mmHg 61%
11:00 +33°C° 0 mm 1 mps 756 mmHg 57%
12:00 +35°C° 0 mm 2 mps 755 mmHg 53%
13:00 +36°C° 0 mm 2 mps 755 mmHg 49%
14:00 +35°C° 0.1 mm 3 mps 754 mmHg 53%
15:00 +34°C° 0.1 mm 3 mps 754 mmHg 57%
16:00 +34°C° 0.1 mm 4 mps 754 mmHg 61%
17:00 +33°C° 0.1 mm 3 mps 754 mmHg 65%
18:00 +31°C° 0.1 mm 2 mps 755 mmHg 68%
19:00 +30°C° 0.1 mm 2 mps 755 mmHg 72%
20:00 +29°C° 0 mm 2 mps 756 mmHg 73%
21:00 +29°C° 0 mm 1 mps 756 mmHg 73%
22:00 +29°C° 0 mm 1 mps 757 mmHg 74%
23:00 +29°C° 0 mm 1 mps 756 mmHg 74%

18 August, Tuesday

Time Temperature Precipitation Wind Pressure Humidity
00:00 +29°C° 0 mm 1 mps 756 mmHg 74%
01:00 +28°C° 0 mm 1 mps 756 mmHg 74%
02:00 +28°C° 0 mm 1 mps 755 mmHg 75%
03:00 +28°C° 0 mm 1 mps 755 mmHg 76%
04:00 +28°C° 0 mm 1 mps 755 mmHg 77%
05:00 +28°C° 0 mm 1 mps 755 mmHg 76%
06:00 +28°C° 0 mm 1 mps 756 mmHg 76%
07:00 +28°C° 0 mm 1 mps 756 mmHg 76%
08:00 +30°C° 0 mm 1 mps 757 mmHg 70%
09:00 +31°C° 0 mm 1 mps 757 mmHg 64%
10:00 +31°C° 0 mm 0 mps 757 mmHg 58%
11:00 +34°C° 0 mm 1 mps 756 mmHg 54%
12:00 +35°C° 0 mm 2 mps 756 mmHg 50%
13:00 +36°C° 0 mm 2 mps 755 mmHg 47%
14:00 +35°C° 0 mm 3 mps 755 mmHg 51%
15:00 +34°C° 0 mm 4 mps 754 mmHg 55%
16:00 +34°C° 0 mm 5 mps 754 mmHg 60%
17:00 +33°C° 0.1 mm 4 mps 755 mmHg 63%
18:00 +31°C° 0.1 mm 3 mps 755 mmHg 67%
19:00 +30°C° 0.1 mm 3 mps 756 mmHg 70%
20:00 +29°C° 0 mm 2 mps 756 mmHg 72%
21:00 +29°C° 0 mm 2 mps 757 mmHg 74%
22:00 +28°C° 0 mm 2 mps 757 mmHg 75%
23:00 +28°C° 0 mm 2 mps 756 mmHg 76%
Show more